LEMUR-2-C

Last updated on Thu Dec 01 2016 00:15:03 GMT+0000 (Coordinated Universal Time)

1 41871U 16062C 16335.78070007 .00001055 00000-0 61499-4 0 9997 2 41871 51.6403 308.5692 0006527 254.9094 172.7510 15.21031955 733
UTC large
Height (km)
Speed (km/s)
/
Latitude / Longitude
Inclination (degrees)
Orbital Period (minutes)
Azimuth
Elevation
Range (km)
Doppler Factor

Next 0 passes for location: London (51.5072 / 0.1276)

Sorry there are no passes over London.